Previsão horária em Abdul-Gazy

Hoje, 12 Abril, Segunda-feira

Tempo Temperatura Precipitação Vento Pressão Humidade
00:00 +12°C° 0 mm 2 m/s 758 mmHg 69%
01:00 +10°C° 0 mm 2 m/s 758 mmHg 70%
02:00 +10°C° 0 mm 2 m/s 758 mmHg 71%
03:00 +10°C° 0 mm 1 m/s 758 mmHg 73%
04:00 +9°C° 0 mm 2 m/s 758 mmHg 73%
05:00 +10°C° 0 mm 2 m/s 759 mmHg 73%
06:00 +10°C° 0 mm 2 m/s 759 mmHg 73%
07:00 +12°C° 0 mm 2 m/s 759 mmHg 69%
08:00 +13°C° 0 mm 2 m/s 760 mmHg 64%
09:00 +14°C° 0 mm 2 m/s 760 mmHg 59%
10:00 +15°C° 0 mm 2 m/s 760 mmHg 56%
11:00 +16°C° 0 mm 1 m/s 760 mmHg 54%
12:00 +18°C° 0 mm 1 m/s 761 mmHg 52%
13:00 +18°C° 0 mm 1 m/s 761 mmHg 52%
14:00 +18°C° 0 mm 1 m/s 761 mmHg 52%
15:00 +18°C° 0 mm 1 m/s 761 mmHg 54%
16:00 +16°C° 0 mm 1 m/s 761 mmHg 57%
17:00 +16°C° 0 mm 1 m/s 761 mmHg 61%
18:00 +15°C° 0 mm 2 m/s 761 mmHg 65%
19:00 +14°C° 0 mm 2 m/s 761 mmHg 69%
20:00 +13°C° 0 mm 2 m/s 762 mmHg 73%
21:00 +12°C° 0 mm 2 m/s 762 mmHg 77%
22:00 +12°C° 0.1 mm 2 m/s 762 mmHg 80%
23:00 +11°C° 0.1 mm 1 m/s 762 mmHg 83%

Amanhã, 13 Abril, Terça-feira

Tempo Temperatura Precipitação Vento Pressão Humidade
00:00 +11°C° 0.1 mm 1 m/s 762 mmHg 86%
01:00 +11°C° 0.1 mm 1 m/s 762 mmHg 86%
02:00 +11°C° 0.1 mm 1 m/s 762 mmHg 86%
03:00 +11°C° 0.1 mm 1 m/s 762 mmHg 87%
04:00 +11°C° 0 mm 1 m/s 763 mmHg 87%
05:00 +10°C° 0 mm 2 m/s 763 mmHg 87%
06:00 +9°C° 0 mm 2 m/s 763 mmHg 87%
07:00 +12°C° 0 mm 2 m/s 763 mmHg 80%
08:00 +13°C° 0 mm 3 m/s 763 mmHg 72%
09:00 +14°C° 0 mm 3 m/s 763 mmHg 65%
10:00 +17°C° 0 mm 4 m/s 762 mmHg 57%
11:00 +19°C° 0 mm 6 m/s 762 mmHg 50%
12:00 +20°C° 0 mm 7 m/s 761 mmHg 42%
13:00 +21°C° 0 mm 7 m/s 761 mmHg 41%
14:00 +21°C° 0 mm 6 m/s 761 mmHg 40%
15:00 +21°C° 0 mm 6 m/s 761 mmHg 39%
16:00 +20°C° 0 mm 5 m/s 761 mmHg 44%
17:00 +17°C° 0 mm 5 m/s 761 mmHg 49%
18:00 +17°C° 0 mm 4 m/s 761 mmHg 54%
19:00 +15°C° 0 mm 4 m/s 761 mmHg 56%
20:00 +14°C° 0 mm 3 m/s 761 mmHg 58%
21:00 +13°C° 0 mm 3 m/s 761 mmHg 60%
22:00 +12°C° 0 mm 3 m/s 760 mmHg 59%
23:00 +12°C° 0 mm 3 m/s 760 mmHg 57%

Depois de amanhã, 14 Abril, Quarta-feira

Tempo Temperatura Precipitação Vento Pressão Humidade
00:00 +12°C° 0 mm 3 m/s 760 mmHg 56%
01:00 +11°C° 0 mm 3 m/s 759 mmHg 60%
02:00 +12°C° 0 mm 2 m/s 759 mmHg 63%
03:00 +10°C° 0 mm 2 m/s 759 mmHg 66%
04:00 +10°C° 0.1 mm 2 m/s 759 mmHg 70%
05:00 +10°C° 0.1 mm 2 m/s 758 mmHg 75%
06:00 +10°C° 0.1 mm 2 m/s 758 mmHg 79%
07:00 +12°C° 0 mm 2 m/s 758 mmHg 72%
08:00 +13°C° 0 mm 2 m/s 758 mmHg 64%
09:00 +13°C° 0 mm 3 m/s 758 mmHg 57%
10:00 +14°C° 0 mm 3 m/s 758 mmHg 53%
11:00 +16°C° 0 mm 3 m/s 758 mmHg 49%
12:00 +17°C° 0 mm 3 m/s 758 mmHg 46%
13:00 +17°C° 0 mm 3 m/s 757 mmHg 44%
14:00 +18°C° 0 mm 2 m/s 757 mmHg 42%
15:00 +19°C° 0 mm 2 m/s 757 mmHg 40%
16:00 +18°C° 0 mm 3 m/s 757 mmHg 48%
17:00 +17°C° 0 mm 3 m/s 757 mmHg 55%
18:00 +15°C° 0 mm 4 m/s 758 mmHg 62%
19:00 +14°C° 0.1 mm 4 m/s 758 mmHg 67%
20:00 +13°C° 0.1 mm 4 m/s 758 mmHg 72%
21:00 +13°C° 0.1 mm 5 m/s 758 mmHg 77%
22:00 +12°C° 0.1 mm 4 m/s 758 mmHg 78%
23:00 +12°C° 0.1 mm 4 m/s 758 mmHg 80%

15 Abril, Quinta-feira

Tempo Temperatura Precipitação Vento Pressão Humidade
00:00 +12°C° 0.1 mm 4 m/s 758 mmHg 81%
01:00 +12°C° 0 mm 4 m/s 758 mmHg 81%
02:00 +12°C° 0 mm 4 m/s 757 mmHg 81%
03:00 +12°C° 0 mm 4 m/s 757 mmHg 81%
04:00 +12°C° 0 mm 4 m/s 757 mmHg 82%
05:00 +11°C° 0 mm 4 m/s 757 mmHg 83%
06:00 +11°C° 0 mm 4 m/s 758 mmHg 83%
07:00 +12°C° 0 mm 5 m/s 758 mmHg 79%
08:00 +13°C° 0 mm 5 m/s 758 mmHg 76%
09:00 +13°C° 0 mm 5 m/s 758 mmHg 72%
10:00 +15°C° 0 mm 5 m/s 758 mmHg 64%
11:00 +17°C° 0 mm 6 m/s 757 mmHg 56%
12:00 +19°C° 0 mm 6 m/s 757 mmHg 48%
13:00 +20°C° 0 mm 6 m/s 757 mmHg 46%
14:00 +20°C° 0 mm 6 m/s 757 mmHg 44%
15:00 +20°C° 0 mm 6 m/s 757 mmHg 42%
16:00 +20°C° 0 mm 5 m/s 757 mmHg 45%
17:00 +19°C° 0 mm 4 m/s 757 mmHg 49%
18:00 +18°C° 0 mm 4 m/s 757 mmHg 53%
19:00 +17°C° 0 mm 3 m/s 757 mmHg 56%
20:00 +16°C° 0 mm 3 m/s 758 mmHg 60%
21:00 +13°C° 0 mm 3 m/s 758 mmHg 63%
22:00 +13°C° 0 mm 3 m/s 758 mmHg 65%
23:00 +12°C° 0 mm 3 m/s 758 mmHg 68%

16 Abril, Sexta-feira

Tempo Temperatura Precipitação Vento Pressão Humidade
00:00 +12°C° 0 mm 3 m/s 757 mmHg 70%
01:00 +12°C° 0 mm 3 m/s 758 mmHg 72%
02:00 +11°C° 0 mm 3 m/s 758 mmHg 73%
03:00 +11°C° 0 mm 3 m/s 758 mmHg 75%
04:00 +11°C° 0 mm 3 m/s 758 mmHg 75%
05:00 +11°C° 0 mm 3 m/s 758 mmHg 75%
06:00 +11°C° 0 mm 3 m/s 758 mmHg 75%
07:00 +14°C° 0 mm 2 m/s 758 mmHg 66%
08:00 +16°C° 0 mm 2 m/s 758 mmHg 58%
09:00 +18°C° 0 mm 2 m/s 758 mmHg 50%
10:00 +19°C° 0 mm 2 m/s 758 mmHg 45%
11:00 +20°C° 0 mm 2 m/s 758 mmHg 40%
12:00 +23°C° 0 mm 1 m/s 758 mmHg 35%
13:00 +23°C° 0 mm 1 m/s 757 mmHg 33%
14:00 +24°C° 0 mm 2 m/s 757 mmHg 32%
15:00 +24°C° 0 mm 2 m/s 757 mmHg 30%
16:00 +23°C° 0 mm 2 m/s 757 mmHg 33%
17:00 +21°C° 0 mm 2 m/s 757 mmHg 37%
18:00 +21°C° 0 mm 2 m/s 757 mmHg 40%
19:00 +20°C° 0 mm 2 m/s 757 mmHg 40%
20:00 +18°C° 0 mm 2 m/s 757 mmHg 40%
21:00 +17°C° 0 mm 2 m/s 757 mmHg 40%
22:00 +17°C° 0 mm 2 m/s 757 mmHg 42%
23:00 +17°C° 0 mm 2 m/s 757 mmHg 43%

17 Abril, Sábado

Tempo Temperatura Precipitação Vento Pressão Humidade
00:00 +17°C° 0 mm 2 m/s 758 mmHg 44%
01:00 +16°C° 0 mm 2 m/s 758 mmHg 47%
02:00 +16°C° 0 mm 1 m/s 758 mmHg 50%
03:00 +15°C° 0 mm 1 m/s 758 mmHg 53%
04:00 +15°C° 0 mm 2 m/s 758 mmHg 54%
05:00 +14°C° 0 mm 3 m/s 759 mmHg 55%
06:00 +14°C° 0 mm 4 m/s 759 mmHg 56%
07:00 +14°C° 0.1 mm 5 m/s 759 mmHg 65%
08:00 +14°C° 0.1 mm 7 m/s 760 mmHg 73%
09:00 +13°C° 0.1 mm 8 m/s 760 mmHg 81%
10:00 +13°C° 0 mm 8 m/s 760 mmHg 78%
11:00 +13°C° 0 mm 8 m/s 761 mmHg 74%
12:00 +13°C° 0 mm 8 m/s 761 mmHg 71%
13:00 +14°C° 0 mm 7 m/s 761 mmHg 67%
14:00 +15°C° 0 mm 6 m/s 761 mmHg 64%
15:00 +15°C° 0 mm 5 m/s 761 mmHg 60%
16:00 +14°C° 0 mm 5 m/s 762 mmHg 65%
17:00 +13°C° 0 mm 4 m/s 762 mmHg 70%
18:00 +12°C° 0 mm 4 m/s 762 mmHg 75%
19:00 +12°C° 0 mm 4 m/s 762 mmHg 77%
20:00 +11°C° 0 mm 4 m/s 762 mmHg 79%
21:00 +11°C° 0 mm 3 m/s 762 mmHg 81%
22:00 +10°C° 0 mm 3 m/s 762 mmHg 81%
23:00 +10°C° 0 mm 3 m/s 762 mmHg 82%
Mostrar mais